Weather in Kuyanovo

Russia / Tomsk District     56°56′57″N   86°27′56″E
temp.,
°C
wind,
m/s
gust,
m/s
humid.,
%
clouds,
%
prec.,
mm/h
press.,
hPa
HPBL,
m
14 june, mon
mon1401:00+9nnw399712 0.2 1015200
04:00+6n36950 0.0 1016110
07:00+9n26855 0.0 1018176
10:00+15n3545100 0.0 10181226
13:00+18nw453781 0.0 10181890
16:00+20nw45325 0.0 10172036
19:00+20nw35425 0.0 10181490
22:00+13nnw226410 0.0 101813
15 june, tue
tue1501:00+10wsw11686 0.0 101810
04:00+9wsw227299 0.0 101817
07:00+13sw2569100 0.0 1017126
10:00+14sw387325 0.0 1016272
13:00+22wsw575348 0.1 10141128
16:00+25w3648100 0.1 10112022
19:00+17n5992100 2.9 1013484
22:00+13s22965 1.0 101219
16 june, wed
wed1601:00+14sw119788 1.1 101116
04:00+13ssw23974 0.0 101054
07:00+15wsw379511 0.2 1010208
10:00+22wsw35685 0.0 1010682
13:00+26w47473 0.0 10091923
16:00+21wnw376940 0.6 1009319
19:00+20w2580100 0.6 1008306
22:00+16n2297100 2.8 100938
17 june, thu
thu1701:00+14s2597100 2.8 100897
04:00+14ssw269929 0.0 1007156
07:00+16sw2695100 0.0 1007238
10:00+21sw3475100 0.3 1006758
13:00+21sw337959 2.3 1004949
16:00+22w348032 4.2 1003826
19:00+20wnw368915 6.9 1003569
22:00+16wnw3695100 1.4 1003141
18 june, fri
fri1801:00+15w389698 1.4 1003237
04:00+12w379745 0.0 1003168
07:00+14w369485 0.0 1003218
10:00+18wnw467980 0.1 1003846
13:00+18nnw358894 1.8 1004403
16:00+20nnw348057 1.2 1004538
19:00+20n118677 2.9 1004157
22:00+16e229492 0.3 100414